Location: Pedholt
(56.0260°N, 10.2097°E)
Time: 06:31:49
(UTC+00:00)

Gbstr 26 Del rocket - Pass Details

Date: 14 July 2020
Orbit: 492 x 1264 km, 51.8° (Epoch: 07 August)

Event Time Altitude Azimuth Distance (km) Brightness Sun altitude
Rises 01:37:45 0° 275° (W) 2,655 6.1 -7.4°
Reaches altitude 10° 01:40:01 10° 263° (W) 1,826 5.1 -7.3°
Maximum altitude 01:43:33 28° 204° (SSW) 1,137 3.9 -7.0°
Drops below altitude 10° 01:47:37 10° 145° (SE) 2,117 5.6 -6.7°
Sets 01:50:27 0° 135° (SE) 3,171 6.6 -6.5°
